[[{"header":{"parameterUnit":"m.s-1","parameterCategory":1,"la1":30.2991,"la2":30.254,"lo1":-89.0895,"lo2":-89.0444,"dy":0.0017,"dx":0.0017,"nx":28,"ny":28,"refTime":"2024-08-07T09:00:00:Z","depth":0,"parameterNumber":2,"parameterNumberName":"U-component_of_WINDS"},"data":[0,0,0,0,0,0,0,0,0,0,0,0,0,0,0,0,0,0,0,0,0,0,0,0,0,0,0,0,0,0,0,0,0,0,0,0,0,0,0,0,0,0,0,0,0,0,0,0,0,0,0,0,0,0,0,0,0,0,3.0484,3.0485,0,3.051,3.051,3.051,3.0471,3.0469,3.0468,3.0466,3.0492,3.0494,3.0496,0,0,0,0,0,0,0,0,0,0,0,0,0,3.0404,3.0406,3.0484,3.0485,3.0485,3.051,3.051,3.051,3.0471,3.0469,3.0467,3.0466,3.0492,3.0494,3.0496,0,0,0,0,0,0,0,0,0,0,0,0,0,3.0435,3.0407,3.0484,3.0468,3.0467,3.0509,3.051,3.051,3.0471,3.0469,3.0467,3.0465,3.0491,3.0494,3.0497,3.0556,0,0,3.0506,3.0507,0,0,0,0,0,0,0,0,3.0434,3.0438,3.047,3.047,3.0468,3.0485,3.0491,3.0526,3.0472,3.047,3.0466,3.0464,3.0492,3.0494,3.0504,3.0557,3.0558,3.0506,3.0508,3.0509,3.051,0,0,0,0,0,0,0,3.0432,3.0437,3.0494,3.0471,3.047,3.0461,3.0463,3.0498,3.0492,3.047,3.0467,3.047,3.0491,3.0501,3.0504,3.0559,3.0506,3.0509,3.051,3.0512,3.0666,3.0668,0,0,0,0,0,0,3.0431,3.0435,3.0494,3.0495,3.0446,3.0464,3.0466,3.0482,3.0491,3.0491,3.0472,3.0468,3.0497,3.05,3.0505,3.0577,3.0509,3.0512,3.0514,3.0663,3.0666,3.0669,0,0,0,0,0,0,3.043,3.0437,3.0493,3.0465,3.0471,3.0467,3.0485,3.0483,3.0493,3.0493,3.0492,3.0483,3.0495,3.05,3.0544,3.0577,3.0513,3.0516,3.0661,3.0664,3.0668,3.072,0,0,0,0,0,0,3.0427,3.0436,3.0458,3.0465,3.0473,3.0531,3.0487,3.0485,3.0498,3.0494,3.0504,3.0503,3.0494,3.054,3.0547,3.058,3.0518,3.0658,3.0662,3.0666,3.0716,3.0725,3.0733,0,0,0,0,0,3.0425,3.0471,3.0459,3.0467,3.05,3.0533,3.0537,3.0526,3.0501,3.0524,3.0524,3.0503,3.0572,3.0545,3.0553,3.0587,3.0656,3.0661,3.0666,3.0712,3.0723,3.0733,0,0,0,0,0,0,3.0467,3.0472,3.0459,3.0509,3.0521,3.0526,3.0554,3.0538,3.0557,3.0552,3.0538,3.054,3.0588,3.0591,3.0561,3.0646,3.061,3.0617,3.0642,3.0653,3.0662,3.066,3.0521,0,0,0,0,0,3.0483,3.0509,3.0512,3.0556,3.0563,3.0558,3.0572,3.0562,3.0574,3.0579,3.0582,3.0595,3.062,3.0637,3.0659,3.0716,3.0719,3.0744,3.0752,3.076,3.0766,3.0799,3.0811,3.0686,3.0686,3.0686,0,0,3.0514,3.052,3.0538,3.0565,3.0573,3.0602,3.0562,3.0593,3.0615,3.0584,3.0626,3.0629,3.0642,3.0694,3.0716,3.0698,3.0801,3.0766,3.0772,3.0775,3.0806,3.0818,3.0828,3.069,3.0689,3.0688,0,0,3.0587,3.0593,3.0632,3.0642,3.0655,3.0652,3.0662,3.067,3.0671,3.0713,3.0691,3.0717,3.076,3.0771,3.0782,3.0863,3.0845,3.0871,3.0917,3.0949,3.0959,3.0968,3.0999,3.101,3.0877,3.0877,3.0877,0,3.0625,3.0667,3.0654,3.0688,3.0701,3.0675,3.0716,3.0725,3.0746,3.0756,3.0736,3.0791,3.0797,3.0852,3.0872,3.0882,3.0893,3.0869,3.0959,3.0967,3.0975,3.1004,3.1016,3.088,3.088,3.088,3.0879,0,3.0714,3.0743,3.0773,3.0794,3.0811,3.0848,3.0842,3.0861,3.0851,3.085,3.0895,3.0903,3.0928,3.094,3.093,3.0995,3.0983,3.0961,3.0924,3.0991,3.1018,3.1029,3.0885,3.0884,3.0883,3.0882,0,0,3.0812,3.0828,3.084,3.085,3.0864,3.0887,3.0924,3.0949,3.0967,3.0982,3.1013,3.1052,3.1032,3.1045,3.1036,3.1064,3.1131,3.1039,3.1039,3.1057,3.1205,3.1223,3.1236,3.1119,3.1121,3.1122,3.1205,0,3.0886,3.095,3.0941,3.1002,3.103,3.1007,3.104,3.1053,3.1054,3.1079,3.108,3.1108,3.1079,3.1087,3.1114,3.1117,3.116,3.1111,3.1149,3.1151,3.1148,3.1249,3.1267,3.1344,3.1215,3.1217,3.1218,0,3.0981,3.1001,3.1065,3.1078,3.1089,3.1118,3.1142,3.1166,3.1181,3.118,3.1197,3.1183,3.1222,3.1184,3.1238,3.1205,3.122,3.1224,3.1227,3.1231,3.1189,3.1257,3.1368,3.1381,3.1234,3.1233,3.1232,0,3.1049,3.1092,3.1137,3.1146,3.1161,3.1183,3.119,3.1203,3.122,3.1241,3.1252,3.1277,3.1291,3.1312,3.1306,3.1279,3.1362,3.1324,3.1364,3.1364,3.1382,3.1381,3.1499,3.1391,3.139,3.139,3.139,0,3.1133,3.1174,3.1168,3.1196,3.1242,3.1231,3.1277,3.1282,3.1294,3.1324,3.1305,3.1333,3.1324,3.1351,3.1348,3.1394,3.14,3.1401,3.14,3.1404,3.1404,3.1414,3.1409,3.1393,3.1393,3.1392,3.1391,0,3.1217,3.1214,3.1262,3.1273,3.1277,3.1311,3.132,3.1347,3.1348,3.1385,3.1393,3.1394,3.1427,3.1423,3.1459,3.1457,3.1515,3.1506,3.151,3.1508,3.1549,3.1546,3.1678,3.1696,3.1575,3.1576,3.1577,0,3.1271,3.1302,3.1317,3.1336,3.1345,3.1374,3.1392,3.1384,3.1403,3.1424,3.1449,3.148,3.1504,3.1557,3.1561,3.1589,3.1582,3.1627,3.1586,3.159,3.1585,3.1584,3.1588,3.1635,3.1636,3.1637,3.1638,0,3.1368,3.1366,3.1392,3.1418,3.144,3.146,3.1478,3.1495,3.1489,3.1512,3.1545,3.1564,3.1601,3.1633,3.166,3.1668,3.1654,3.1651,3.1662,3.1667,3.1668,3.167,3.1533,3.1648,3.1647,3.1646,3.1646,3.1645,3.144,3.1468,3.1483,3.1514,3.1527,3.1545,3.1572,3.1576,3.1604,3.1634,3.1628,3.1666,3.1683,3.1718,3.1729,3.176,3.1744,3.1759,3.1763,3.1767,3.1773,3.1663,3.1764,3.1764,3.1764,3.1763,3.1763,0,3.1538,3.1548,3.1575,3.1603,3.1627,3.1611,3.1631,3.1653,3.1686,3.1703,3.1728,3.1768,3.1799,3.1806,3.1837,3.186,3.1854,3.1868,3.1867,3.187,3.1785,3.1773,3.1873,3.1873,3.1873,3.1873,3.1873,3.1873,3.1592,3.1639,3.1639,3.1693,3.1702,3.1739,3.1753,3.177,3.1784,3.1829,3.1855,3.186,3.1874,3.1906,3.1934,3.1936,3.1949,3.1966,3.1965,3.1886,3.1875,3.1865,3.1854,3.1969,3.1969,3.2048,3.2049,3.2049]},{"header":{"parameterUnit":"m.s-1","parameterCategory":1,"la1":30.2991,"la2":30.254,"lo1":-89.0895,"lo2":-89.0444,"dy":0.0017,"dx":0.0017,"nx":28,"ny":28,"refTime":"2024-08-07T09:00:00:Z","depth":0,"parameterNumber":3,"parameterNumberName":"V-component_of_WINDS"},"data":[0,0,0,0,0,0,0,0,0,0,0,0,0,0,0,0,0,0,0,0,0,0,0,0,0,0,0,0,0,0,0,0,0,0,0,0,0,0,0,0,0,0,0,0,0,0,0,0,0,0,0,0,0,0,0,0,0,0,-2.5079,-2.5079,0,-2.516,-2.5161,-2.5162,-2.5193,-2.5193,-2.5193,-2.5192,-2.5276,-2.5279,-2.5281,0,0,0,0,0,0,0,0,0,0,0,0,0,-2.495,-2.4953,-2.5078,-2.508,-2.5081,-2.516,-2.5161,-2.5163,-2.5193,-2.5193,-2.5193,-2.5192,-2.5275,-2.5278,-2.5281,0,0,0,0,0,0,0,0,0,0,0,0,0,-2.5016,-2.4953,-2.5078,-2.5105,-2.5109,-2.516,-2.5161,-2.5163,-2.5193,-2.5193,-2.5193,-2.5192,-2.5274,-2.5278,-2.5282,-2.5312,0,0,-2.5293,-2.5295,0,0,0,0,0,0,0,0,-2.5013,-2.5021,-2.51,-2.5104,-2.5107,-2.5166,-2.5147,-2.5213,-2.5193,-2.5161,-2.5192,-2.5192,-2.524,-2.5246,-2.5263,-2.5316,-2.5319,-2.5293,-2.5296,-2.5297,-2.5298,0,0,0,0,0,0,0,-2.5008,-2.5018,-2.5111,-2.5102,-2.5106,-2.5114,-2.5123,-2.516,-2.5202,-2.5164,-2.5166,-2.5176,-2.5242,-2.5259,-2.5265,-2.5321,-2.5293,-2.5296,-2.5299,-2.53,-2.5406,-2.5407,0,0,0,0,0,0,-2.4999,-2.5014,-2.5108,-2.5113,-2.5058,-2.5117,-2.5127,-2.5148,-2.5201,-2.5209,-2.5176,-2.5177,-2.5253,-2.526,-2.5268,-2.5309,-2.5297,-2.5301,-2.5303,-2.5405,-2.5406,-2.5407,0,0,0,0,0,0,-2.4996,-2.5007,-2.5105,-2.5064,-2.5077,-2.5119,-2.5143,-2.515,-2.5167,-2.521,-2.5218,-2.5186,-2.5253,-2.5263,-2.5301,-2.5312,-2.5302,-2.5306,-2.5405,-2.5406,-2.5406,-2.5389,0,0,0,0,0,0,-2.4992,-2.5006,-2.5017,-2.5064,-2.5079,-2.5137,-2.5143,-2.5151,-2.5173,-2.5175,-2.5222,-2.5229,-2.5253,-2.5296,-2.5305,-2.5317,-2.5308,-2.5404,-2.5405,-2.5406,-2.5389,-2.5389,-2.539,0,0,0,0,0,-2.4987,-2.5008,-2.5017,-2.5029,-2.5095,-2.5137,-2.5146,-2.5173,-2.5174,-2.5186,-2.5215,-2.5227,-2.5309,-2.5299,-2.531,-2.5323,-2.5403,-2.5405,-2.5406,-2.5389,-2.5389,-2.539,0,0,0,0,0,0,-2.4961,-2.5015,-2.5026,-2.5062,-2.5095,-2.5142,-2.5158,-2.5173,-2.5206,-2.5206,-2.5239,-2.5249,-2.5286,-2.5308,-2.5297,-2.5357,-2.5357,-2.5361,-2.5341,-2.5341,-2.5342,-2.5336,-2.5312,0,0,0,0,0,-2.4959,-2.4989,-2.5035,-2.5063,-2.5079,-2.5116,-2.5135,-2.5154,-2.5189,-2.5203,-2.5234,-2.5268,-2.5301,-2.5323,-2.5356,-2.5393,-2.5404,-2.5407,-2.5407,-2.5408,-2.541,-2.5434,-2.5436,-2.5411,-2.5411,-2.5411,0,0,-2.4956,-2.4989,-2.5006,-2.5058,-2.5086,-2.5117,-2.5127,-2.5158,-2.5182,-2.5208,-2.5247,-2.5271,-2.5311,-2.5349,-2.5368,-2.5369,-2.542,-2.5409,-2.5409,-2.5412,-2.5435,-2.5438,-2.544,-2.5412,-2.5412,-2.5412,0,0,-2.4966,-2.4994,-2.5021,-2.5049,-2.5091,-2.5116,-2.5122,-2.5168,-2.5185,-2.5225,-2.5246,-2.5274,-2.5331,-2.5359,-2.5381,-2.5405,-2.5419,-2.5415,-2.5417,-2.5439,-2.5441,-2.5443,-2.5453,-2.5456,-2.5417,-2.5417,-2.5417,0,-2.4957,-2.5004,-2.5033,-2.5065,-2.5088,-2.5113,-2.5142,-2.5168,-2.5218,-2.5234,-2.5235,-2.5308,-2.5337,-2.5383,-2.539,-2.5406,-2.5416,-2.5409,-2.5438,-2.5441,-2.5443,-2.5453,-2.5456,-2.5417,-2.5417,-2.5417,-2.5417,0,-2.4991,-2.5024,-2.5041,-2.509,-2.5115,-2.5145,-2.518,-2.5202,-2.5219,-2.5244,-2.5286,-2.5321,-2.5363,-2.5376,-2.5392,-2.5425,-2.5425,-2.5432,-2.5433,-2.5444,-2.5454,-2.5458,-2.5416,-2.5416,-2.5416,-2.5416,0,0,-2.4985,-2.5052,-2.5058,-2.5081,-2.513,-2.5156,-2.5188,-2.523,-2.5249,-2.5283,-2.5312,-2.5361,-2.5368,-2.5393,-2.5413,-2.5433,-2.5452,-2.5437,-2.5439,-2.544,-2.5493,-2.5488,-2.5492,-2.5461,-2.5462,-2.5463,-2.549,0,-2.5002,-2.506,-2.5089,-2.5135,-2.5166,-2.5192,-2.522,-2.5254,-2.5279,-2.531,-2.5338,-2.5372,-2.5378,-2.5394,-2.5415,-2.5445,-2.5463,-2.5443,-2.5489,-2.549,-2.5479,-2.5497,-2.5491,-2.5515,-2.5494,-2.5494,-2.5495,0,-2.503,-2.5065,-2.5114,-2.5162,-2.5177,-2.5201,-2.5243,-2.5272,-2.5312,-2.5329,-2.5358,-2.5378,-2.5414,-2.5413,-2.5464,-2.545,-2.547,-2.5488,-2.549,-2.5496,-2.5493,-2.5504,-2.5523,-2.5527,-2.5501,-2.5501,-2.55,0,-2.5022,-2.5082,-2.512,-2.5139,-2.5195,-2.5213,-2.5237,-2.5276,-2.53,-2.5337,-2.5353,-2.5393,-2.5415,-2.5446,-2.5478,-2.5474,-2.5526,-2.5527,-2.5542,-2.5542,-2.5552,-2.5551,-2.5576,-2.5564,-2.5564,-2.5564,-2.5564,0,-2.5039,-2.5068,-2.5117,-2.5141,-2.5175,-2.5209,-2.5242,-2.5268,-2.5304,-2.5333,-2.5358,-2.5386,-2.5425,-2.5458,-2.5483,-2.5522,-2.5531,-2.5547,-2.5553,-2.5545,-2.5543,-2.5559,-2.5559,-2.5565,-2.5565,-2.5565,-2.5565,0,-2.5035,-2.5069,-2.5113,-2.5163,-2.5177,-2.52,-2.5244,-2.5268,-2.5295,-2.5333,-2.5344,-2.5386,-2.5426,-2.5461,-2.5513,-2.553,-2.5571,-2.5579,-2.5558,-2.5562,-2.5575,-2.5574,-2.5612,-2.5619,-2.5601,-2.5602,-2.5602,0,-2.5044,-2.5067,-2.5121,-2.5143,-2.5167,-2.5202,-2.5227,-2.5262,-2.5287,-2.5336,-2.5355,-2.5397,-2.5432,-2.5496,-2.5532,-2.5573,-2.5582,-2.5592,-2.5588,-2.558,-2.5584,-2.5582,-2.5585,-2.5592,-2.5592,-2.5592,-2.5592,0,-2.5056,-2.5072,-2.5107,-2.5149,-2.5179,-2.5213,-2.5248,-2.5265,-2.5307,-2.5334,-2.5376,-2.5404,-2.5459,-2.5501,-2.5546,-2.5572,-2.559,-2.5594,-2.56,-2.5592,-2.5579,-2.5588,-2.556,-2.5592,-2.5592,-2.5592,-2.5592,-2.5592,-2.5059,-2.5082,-2.5124,-2.5164,-2.5194,-2.5227,-2.5253,-2.5284,-2.532,-2.5367,-2.5386,-2.5429,-2.5471,-2.5534,-2.5561,-2.5596,-2.5598,-2.5606,-2.5609,-2.561,-2.561,-2.5574,-2.5604,-2.5604,-2.5604,-2.5604,-2.5604,0,-2.5074,-2.5103,-2.5138,-2.5188,-2.5219,-2.5233,-2.5274,-2.5299,-2.5337,-2.5374,-2.541,-2.5459,-2.5501,-2.5541,-2.5585,-2.5606,-2.5615,-2.5616,-2.5615,-2.5622,-2.5604,-2.5595,-2.5608,-2.5608,-2.5608,-2.5608,-2.5608,-2.5608,-2.5085,-2.5125,-2.5147,-2.5203,-2.5232,-2.5275,-2.5297,-2.5328,-2.5359,-2.5413,-2.5448,-2.5474,-2.5514,-2.5562,-2.5601,-2.5612,-2.5628,-2.5627,-2.564,-2.5623,-2.5622,-2.5622,-2.5613,-2.563,-2.563,-2.5655,-2.5655,-2.5655]}]]